Weather in Nizhniy Baskunchak

Russia / Astrakhan Oblast     48°13′12″N   46°49′51″E
temp.,
°C
wind,
m/s
gust,
m/s
humid.,
%
clouds,
%
prec.,
mm/h
press.,
hPa
HPBL,
m
31 july, sat
sat3101:00+27ssw49261 0.0 1010175
04:00+25sw49282 0.0 1010155
07:00+26sw36323 0.0 1010151
10:00+32ssw442144 0.0 1011891
13:00+35s43175 0.0 10103277
16:00+36sse431578 0.0 10093426
19:00+35sse4314100 0.0 10092494
22:00+30s45169 0.0 101056
1 august, sun
sun101:00+27w22180 0.0 101111
04:00+25sw11200 0.0 101111
07:00+28sse11200 0.0 101214
10:00+33sse33170 0.0 1012692
13:00+36se33160 0.0 10112876
16:00+37sse33150 0.0 10113208
19:00+36s43180 0.0 10102927
22:00+32se11251 0.0 101112
2 august, mon
mon201:00+31ese442465 0.0 101151
04:00+29s332550 0.0 101143
07:00+29s232710 0.0 101295
10:00+35sse34175 0.0 1012702
13:00+38sse551427 0.0 10122896
16:00+39s651219 0.0 10104281
19:00+38sse351158 0.0 10103075
22:00+32s451556 0.0 101059
3 august, tue
tue301:00+30sw45165 0.0 101077
04:00+29w331715 0.0 101021
07:00+29ssw33185 0.0 101162
10:00+36s33120 0.0 1011718
13:00+39sse5790 0.0 10104158
16:00+40s5680 0.0 10084436
19:00+38ssw5591 0.0 10072238
22:00+33sw33120 0.0 100826
4 august, wed
wed401:00+30wsw22150 0.0 100811
04:00+26n6124077 0.0 1008250
07:00+27n5114772 0.0 1010349
10:00+32ne552981 0.0 1010550
13:00+34nw4525100 0.0 10111371
16:00+36nw44235 0.0 10102116
19:00+24nnw151872100 0.3 1011474
22:00+27nw484454 1.6 1011201